Bartlesville, OK

6:08 PM CST on February 25, 2017 (GMT -0600)
Bartlesville Municipal

Weather History for KBVO - October, 2011

Change the Weather History Date:

Monday, October 31, 2011

  Actual Average Record
Temperature  
Mean Temperature 52 °F -  
Max Temperature 77 °F 69 °F 88 °F (1950)
Min Temperature 28 °F 45 °F 16 °F (1993)
Degree Days  
Heating Degree Days 14    
Growing Degree Days 2 (Base 50)    
Moisture  
Dew Point 32 °F    
Average Humidity 57    
Maximum Humidity 92    
Minimum Humidity 20    
Precipitation  
Precipitation 0.00 in - - ()
Sea Level Pressure  
Sea Level Pressure 30.11 in    
Wind  
Wind Speed 3 mph (SSW)    
Max Wind Speed 14 mph    
Max Gust Speed 20 mph    
Visibility 10 miles    
Events      
Averages and records for this station are not official NWS values.
T = Trace of Precipitation, MM = Missing Value Source: NWS Daily Summary

Daily Weather History Graph

Daily Weather History Graph

Search for Another Location

Airport or City:

Trip Planner

Search our weather history database for the weather conditions in past years. The results will help you decide how hot, cold, wet, or windy it might be!

Date:

Astronomy

Oct. 31, 2011 Rise Set
Actual Time 7:46 AM CDT 6:28 PM CDT
Civil Twilight 7:19 AM CDT 6:54 PM CDT
Nautical Twilight 6:49 AM CDT 7:25 PM CDT
Astronomical Twilight 6:19 AM CDT 7:55 PM CDT
Moon 12:51 PM CDT (10/31) 11:08 PM CDT (10/31)
Length of Visible Light 11h 35m
Length of Day
10h 41m
Waxing Crescent, 30% of the Moon is Illuminated
Oct 31
Waxing Crescent
Nov 2
First Quarter
Nov 10
Full
Nov 18
Last Quarter
Nov 25
New

Hourly Weather History & Observations

Time (CDT) Temp. Dew Point Humidity Pressure Visibility Wind Dir Wind Speed Gust Speed Precip Events Conditions
12:53 AM 33.1 °F 28.0 °F 82% 30.17 in 10.0 mi Calm Calm - N/A   Clear
1:53 AM 32.0 °F 28.0 °F 85% 30.17 in 10.0 mi Calm Calm - N/A   Clear
2:53 AM 32.0 °F 28.0 °F 85% 30.17 in 10.0 mi Calm Calm - N/A   Clear
3:53 AM 30.9 °F 28.9 °F 92% 30.16 in 10.0 mi Calm Calm - N/A   Clear
4:53 AM 30.9 °F 28.0 °F 89% 30.15 in 10.0 mi Calm Calm - N/A   Clear
5:53 AM 30.9 °F 28.0 °F 89% 30.16 in 10.0 mi Calm Calm - N/A   Clear
6:53 AM 28.9 °F 27.0 °F 92% 30.17 in 10.0 mi Calm Calm - N/A   Clear
7:53 AM 30.0 °F 27.0 °F 88% 30.17 in 10.0 mi Calm Calm - N/A   Clear
8:53 AM 37.0 °F 32.0 °F 82% 30.18 in 10.0 mi Calm Calm - N/A   Clear
9:53 AM 52.0 °F 34.0 °F 50% 30.18 in 10.0 mi Calm Calm - N/A   Clear
10:53 AM 64.0 °F 30.9 °F 29% 30.16 in 10.0 mi SSW 12.7 mph 18.4 mph N/A   Clear
11:53 AM 69.1 °F 34.0 °F 27% 30.14 in 10.0 mi SW 12.7 mph 18.4 mph N/A   Clear
12:53 PM 72.0 °F 32.0 °F 23% 30.11 in 10.0 mi SSW 13.8 mph 19.6 mph N/A   Clear
1:53 PM 75.0 °F 30.9 °F 20% 30.07 in 10.0 mi SW 11.5 mph 18.4 mph N/A   Clear
2:53 PM 75.9 °F 34.0 °F 22% 30.05 in 10.0 mi SSW 10.4 mph - N/A   Clear
3:53 PM 75.9 °F 34.0 °F 22% 30.03 in 10.0 mi SSW 11.5 mph 19.6 mph N/A   Clear
4:53 PM 75.0 °F 35.1 °F 23% 30.02 in 10.0 mi South 12.7 mph 19.6 mph N/A   Clear
5:53 PM 72.0 °F 37.9 °F 29% 30.02 in 10.0 mi South 6.9 mph 18.4 mph N/A   Clear
6:53 PM 66.0 °F 39.0 °F 37% 30.03 in 10.0 mi SSW 6.9 mph - N/A   Clear
7:53 PM 62.1 °F 39.9 °F 44% 30.04 in 10.0 mi SSW 4.6 mph - N/A   Clear
9:53 PM 48.9 °F 39.0 °F 69% 30.03 in 10.0 mi Calm Calm - N/A   Clear
10:53 PM 46.9 °F 39.0 °F 74% 30.04 in 10.0 mi South 3.5 mph - N/A   Clear